User: anonymous   Login
Location: Holyhead Bay
(53.3667°N, 4.6667°W)
Time: 03:51:09
(UTC+00:00)
Language:

RESURS 01 DEB - Orbit

View from above orbital plane
View from above orbital plane
View from above satellite
View from above satellite

Ground track
Ground track

The orbit data is extracted from the following two-line orbital elements,

1 46874U 94074BE  21165.68474137  .00003653  00000-0  47105-3 0  9995
2 46874  97.9042 215.4692 0003395 129.1352 231.0163 14.81634297 33179
Epoch (UTC): 14 June 2021 16:26:01
Eccentricity: 0.0003395
inclination: 97.9042°
perigee height: 622 km
apogee height: 626 km
right ascension of ascending node: 215.4692°
argument of perigee: 129.1352°
revolutions per day: 14.81634297
mean anomaly at epoch: 231.0163°
orbit number at epoch: 3317

The dashed part of the orbit path shows where the satellite is in the earth's shadow,  

DLR